EPSILON R/B, 41897

Orbit data source: Space-Track

EPSILON R/B, 41897 is space debris in HEO originally from a launch on Tue, 20 Dec 2016 UTC launched from the Kagoshima Space Center University Of Tokyo (KSCUT). Debris objects in space refer to the collection of defunct objects orbiting the Earth. Examples of debris include non-operational satellites, rocket bodies, and fragments generated from explosions, collisions, or faulty payload assembly.

Loading next visibility...
Identifier
41897, 2016-080B
Orbit
HEO
Country
Flag of JPJP / JPN
Related business
Manufacturer
IHI Ogikubo
Mission
Spacecraft
Bus & Motor
KM-V, Unknown motor
Mass
~400 kg wet, ~400 kg dry
Launch date (UTC)
2016-12-20 (10 years ago)
Launch vehicle
Unknown
Launch site
Kagoshima Space Center University Of Tokyo (KSCUT)
Object type
Payload
Rocket body
Debris
Shape & HBR
Cyl, 1.1 m
Radar Cross Section
3.189 m², Large (>1 m²)

Expand to show TLE details & history
Last TLE update: 4 days ago

TLE from 4 days ago
0 EPSILON R/B
1 41897U 16080B   26169.03680565  .00219911  47939-7  10742-2 0  9999
2 41897  31.1715 117.5250 4723289 130.3154 281.6807  6.28732371128015
Epoch: 2026-06-18T00:53Z
TLE epoch observation values (Epoch: 2026-06-18T00:53:00.008Z)
Latitude
0.00001°
Longitude
-162.02715°
Altitude
7,491.945 km
Speed
5.034 km/s
True Right ascension
07h 50m 02s
True Declination
0° 00' 00"
Sunlit
Object was in daylight at epoch
Visualization orbit readout
Latitude
Unknown
Longitude
Unknown
Altitude
Unknown
Speed
Unknown
Apparent Right ascension
Unknown
Apparent Declination
Unknown
Sunlit
N/A
Visualization observer readout
Local Sidereal Time
21:35:34
Azimuth
Unknown
Elevation
Unknown
Doppler factor
Unknown
Orbital elements
Apogee altitude
11,883.445 km
Perigee altitude
166.67 km
Semi-major axis
12,403.194 km
Eccentricity
0.47233
Inclination
31.1715°
RAAN
117.525°
Arg. of periapsis
130.3154°
True anomaly
229.72445°
Mean anomaly
281.6807°
Eccentric anomaly
255.48234°
Mean motion
1.57124 °/min
Orbital period
229.12 mins
BSTAR
0.0010742
Loading maneuver chart data...
Computing Atmospheric mass density...
Loading historical data...
Loading historical data...
Loading historical data...
Loading historical data...
Loading historical data...
Loading historical data...
Loading historical data...
Other satellites on launch #80 in the year 2016 (2016-12-20 UTC)

Documentation

Showing up to 5 results
|